Calgary / Springba, Alberta

7:04 AM MST on February 22, 2017 (GMT -0700)
Springbank

Weather History for CYBW - September, 2013

Change the Weather History Date:

Monday, September 23, 2013

  Actual Average Record
Temperature  
Mean Temperature 48 °F -  
Max Temperature 61 °F 51 °F 80 °F (1997)
Min Temperature 35 °F 28 °F 15 °F (2000)
Degree Days  
Heating Degree Days 17    
Moisture  
Dew Point 32 °F    
Average Humidity 50    
Maximum Humidity 81    
Minimum Humidity 24    
Precipitation  
Precipitation 0.00 in - - ()
Sea Level Pressure  
Sea Level Pressure 29.67 in    
Wind  
Wind Speed 11 mph ()    
Max Wind Speed 26 mph    
Max Gust Speed 36 mph    
Visibility 16.4 miles    
Events      
Averages and records for this station are not official NWS values.
T = Trace of Precipitation, MM = Missing Value Source: Averaged Metar Reports

Daily Weather History Graph

Daily Weather History Graph

Search for Another Location

Airport or City:

Trip Planner

Search our weather history database for the weather conditions in past years. The results will help you decide how hot, cold, wet, or windy it might be!

Date:

Astronomy

Sep. 23, 2013 Rise Set
Actual Time 7:25 AM MDT 7:32 PM MDT
Civil Twilight 6:52 AM MDT 8:05 PM MDT
Nautical Twilight 6:13 AM MDT 8:44 PM MDT
Astronomical Twilight 5:33 AM MDT 9:24 PM MDT
Moon 9:35 PM MDT (9/23) 12:20 PM MDT (9/23)
Length of Visible Light 13h 12m
Length of Day
12h 06m
Waning Gibbous, 81% of the Moon is Illuminated
Sep 23
Waning Gibbous
Sep 26
Last Quarter
Oct 4
New
Oct 11
First Quarter
Oct 18
Full

Hourly Weather History & Observations

Time (MDT) Temp. Windchill Dew Point Humidity Pressure Visibility Wind Dir Wind Speed Gust Speed Precip Events Conditions
5:00 AM 44.6 °F 40.2 °F 37.4 °F 76% 29.54 in 15.0 mi WNW 8.1 mph - N/A   Overcast
6:00 AM 45 °F - 36 °F 61% 29.57 in 15 mi West 13.8 mph - -   Overcast
6:00 AM 44.6 °F 38.4 °F 35.6 °F 71% 29.57 in 15.0 mi West 12.7 mph - N/A   Overcast
7:00 AM 44.6 °F 37.8 °F 32.0 °F 61% 29.60 in 20.0 mi West 15.0 mph - N/A   Mostly Cloudy
8:00 AM 44.6 °F 38.8 °F 33.8 °F 66% 29.62 in 30.0 mi West 11.5 mph - N/A   Mostly Cloudy
9:00 AM 42.8 °F 39.3 °F 33.8 °F 70% 29.64 in 30.0 mi West 5.8 mph - N/A   Scattered Clouds
10:00 AM 50.0 °F - 35.6 °F 58% 29.64 in 30.0 mi West 3.5 mph - N/A   Partly Cloudy
11:00 AM 57.2 °F - 32.0 °F 38% 29.63 in 30.0 mi West 18.4 mph - N/A   Partly Cloudy
12:00 PM 58 °F - 31 °F 24% 29.66 in 28 mi West 17.3 mph - -   Scattered Clouds
12:00 PM 57.2 °F - 30.2 °F 36% 29.66 in 30.0 mi West 15.0 mph 24.2 mph N/A   Scattered Clouds
1:00 PM 60.8 °F - 30.2 °F 31% 29.67 in 30.0 mi WNW 10.4 mph 19.6 mph N/A   Partly Cloudy
2:00 PM 60.8 °F - 30.2 °F 31% 29.68 in 30.0 mi West 18.4 mph 31.1 mph N/A   Partly Cloudy
3:00 PM 60.8 °F - 28.4 °F 29% 29.69 in 35.0 mi West 24.2 mph 31.1 mph N/A   Partly Cloudy
4:00 PM 59.0 °F - 26.6 °F 29% 29.69 in 30.0 mi West 25.3 mph 33.4 mph N/A   Partly Cloudy
5:00 PM 59.0 °F - 26.6 °F 29% 29.69 in 30.0 mi WSW 26.5 mph 35.7 mph N/A   Scattered Clouds
6:00 PM 56 °F - 30 °F 25% 29.71 in 28 mi West 16.1 mph - -   Scattered Clouds
6:00 PM 55.4 °F - 30.2 °F 38% 29.71 in 30.0 mi West 13.8 mph 20.7 mph N/A   Partly Cloudy
7:00 PM 50.0 °F - 32.0 °F 50% 29.75 in 30.0 mi WNW 10.4 mph - N/A   Partly Cloudy
8:00 PM 37.4 °F 32.8 °F 32.0 °F 81% 29.80 in 20.0 mi West 5.8 mph - N/A   Partly Cloudy
9:00 PM 37.4 °F 30.3 °F 32.0 °F 81% 29.82 in 15.0 mi SW 10.4 mph - N/A   Partly Cloudy
10:00 PM 39.2 °F 35.0 °F 32.0 °F 75% 29.79 in 15.0 mi WNW 5.8 mph - N/A   Partly Cloudy